[[{"header":{"parameterUnit":"m.s-1","parameterCategory":1,"la1":30.2992,"la2":30.254,"lo1":-89.0895,"lo2":-89.0443,"dy":0.0025,"dx":0.0025,"nx":19,"ny":19,"refTime":"2026-05-06T09:00:00:Z","depth":0,"parameterNumber":2,"parameterNumberName":"U-component_of_WINDS"},"data":[0,0,0,-2.3392,-2.3396,-2.361,-2.3611,-2.3859,-2.3861,0,0,0,0,0,0,0,0,0,0,0,-2.3313,-2.3314,-2.3391,-2.3396,-2.361,-2.3612,-2.3859,-2.3861,0,0,0,0,0,0,0,0,0,0,0,-2.3312,-2.3313,-2.3315,-2.3397,-2.361,-2.3612,-2.3858,-2.3706,0,0,0,0,0,0,0,0,0,0,-2.3502,-2.3414,-2.3313,-2.3315,-2.3398,-2.361,-2.3612,-2.3699,-2.3715,-2.3751,0,-2.3779,0,-2.3824,-2.3876,-2.3877,0,0,0,-2.3408,-2.34,-2.3472,-2.3315,-2.34,-2.361,-2.3517,-2.3708,-2.3727,-2.3772,-2.3783,-2.3792,-2.3828,-2.3878,-2.3879,-2.4045,-2.4045,0,0,-2.3396,-2.3343,-2.3459,-2.3483,-2.3449,-2.351,-2.3523,-2.372,-2.3727,-2.3783,-2.3799,-2.3832,-2.3879,-2.3881,-2.4045,-2.4045,0,0,0,-2.3354,-2.3334,-2.3402,-2.3472,-2.3513,-2.3516,-2.3532,-2.3719,-2.3745,-2.3802,-2.3835,-2.388,-2.3883,-2.4044,-2.4045,-2.4004,0,0,0,-2.3348,-2.331,-2.3396,-2.3365,-2.3509,-2.3619,-2.3525,-2.3732,-2.3756,-2.3834,-2.388,-2.3885,-2.4044,-2.4044,-2.4004,-2.3993,0,0,0,-2.3304,-2.3305,-2.3331,-2.3362,-2.3453,-2.3617,-2.3655,-2.3738,-2.3775,-2.3877,-2.3886,-2.4044,-2.4044,-2.4005,-2.3994,-2.4021,0,0,0,-2.3242,-2.3292,-2.3329,-2.3398,-2.345,-2.359,-2.3654,-2.3761,-2.3844,-2.3882,-2.4044,-2.4045,-2.4005,-2.3995,-2.4021,-2.4032,-2.4032,0,0,-2.3275,-2.3294,-2.3339,-2.3378,-2.3497,-2.3562,-2.3676,-2.3802,-2.386,-2.398,-2.3985,-2.4004,-2.3994,-2.4021,-2.4052,-2.4052,0,0,0,-2.3331,-2.3362,-2.3406,-2.3482,-2.3579,-2.3661,-2.3775,-2.3822,-2.3926,-2.3911,-2.4023,-2.4019,-2.4036,-2.4044,-2.4044,-2.4062,-2.4046,-2.4046,-2.4046,-2.3302,-2.3373,-2.3452,-2.3548,-2.3621,-2.3738,-2.3804,-2.3886,-2.3938,-2.3963,-2.3999,-2.4009,-2.4016,-2.4017,-2.4034,-2.4011,-2.4011,-2.4011,-2.4011,-2.3356,-2.3411,-2.3478,-2.3577,-2.3652,-2.3737,-2.3851,-2.3884,-2.3973,-2.3989,-2.4008,-2.4017,-2.4014,-2.4033,-2.4009,-2.4009,-2.4009,-2.401,-2.401,-2.3344,-2.3383,-2.3439,-2.3555,-2.3636,-2.3733,-2.3815,-2.3882,-2.3944,-2.3963,-2.4007,-2.4008,-2.4016,-2.398,-2.398,-2.398,-2.398,-2.398,-2.398,-2.3309,-2.3373,-2.3434,-2.3541,-2.3598,-2.3681,-2.3798,-2.3856,-2.3937,-2.3978,-2.3979,-2.4027,-2.4001,-2.3992,-2.3981,-2.3981,-2.398,-2.398,-2.398,-2.3336,-2.334,-2.3434,-2.3491,-2.3621,-2.3697,-2.378,-2.3892,-2.3949,-2.3987,-2.4032,-2.4002,-2.4026,-2.4027,-2.402,-2.4017,-2.4017,-2.4017,-2.4017,-2.3325,-2.3344,-2.3454,-2.354,-2.3632,-2.3717,-2.382,-2.3911,-2.4006,-2.4046,-2.4056,-2.4053,-2.4051,-2.4076,-2.4076,-2.4071,-2.4081,-2.4081,-2.4081,-2.3345,-2.3375,-2.345,-2.3543,-2.365,-2.3739,-2.3838,-2.3934,-2.4043,-2.4085,-2.4078,-2.4076,-2.4072,-2.4067,-2.4107,-2.4105,-2.4097,0,0]},{"header":{"parameterUnit":"m.s-1","parameterCategory":1,"la1":30.2992,"la2":30.254,"lo1":-89.0895,"lo2":-89.0443,"dy":0.0025,"dx":0.0025,"nx":19,"ny":19,"refTime":"2026-05-06T09:00:00:Z","depth":0,"parameterNumber":3,"parameterNumberName":"V-component_of_WINDS"},"data":[0,0,0,7.1517,7.1519,7.1576,7.1576,7.1649,7.165,0,0,0,0,0,0,0,0,0,0,0,7.1501,7.1502,7.1517,7.1519,7.1576,7.1576,7.1649,7.165,0,0,0,0,0,0,0,0,0,0,0,7.1501,7.1501,7.1502,7.1519,7.1576,7.1576,7.1649,7.1606,0,0,0,0,0,0,0,0,0,0,7.155,7.1535,7.1501,7.1502,7.1519,7.1576,7.1576,7.1603,7.1608,7.1624,0,7.1638,0,7.1646,7.1655,7.1655,0,0,0,7.1518,7.1531,7.1547,7.1502,7.152,7.1576,7.155,7.1606,7.1612,7.163,7.1639,7.1642,7.1647,7.1655,7.1656,7.1755,7.1756,0,0,7.1515,7.1511,7.1543,7.155,7.1543,7.1548,7.1552,7.1609,7.1618,7.164,7.1644,7.1648,7.1656,7.1656,7.1755,7.1755,0,0,0,7.1506,7.1509,7.1523,7.1547,7.1558,7.155,7.1554,7.1616,7.1621,7.1645,7.1649,7.1656,7.1657,7.1754,7.1755,7.178,0,0,0,7.1504,7.1504,7.1521,7.152,7.1557,7.1588,7.1559,7.1617,7.1624,7.1649,7.1656,7.1658,7.1753,7.1754,7.1778,7.1791,0,0,0,7.1497,7.1503,7.1512,7.1519,7.1544,7.1587,7.1595,7.1618,7.1626,7.1655,7.1658,7.1753,7.1754,7.1776,7.1788,7.1819,0,0,0,7.1487,7.1528,7.1512,7.156,7.1544,7.1602,7.1595,7.1637,7.1665,7.1657,7.1754,7.1755,7.1775,7.1786,7.1817,7.1845,7.1856,0,0,7.1537,7.1534,7.1563,7.155,7.1612,7.1594,7.1658,7.1685,7.1689,7.1733,7.1735,7.1778,7.1788,7.1819,7.1917,7.1926,0,0,0,7.1578,7.1599,7.1616,7.1644,7.1669,7.1692,7.171,7.1721,7.1759,7.1711,7.1797,7.1803,7.1821,7.1835,7.1842,7.1859,7.1761,7.176,7.176,7.164,7.1649,7.1699,7.1716,7.1743,7.1766,7.1789,7.1808,7.1803,7.1824,7.1837,7.1896,7.1912,7.1917,7.1935,7.1851,7.1851,7.1851,7.1851,7.1716,7.1748,7.1749,7.1797,7.1806,7.1847,7.1871,7.1869,7.1908,7.1885,7.1902,7.1877,7.1927,7.1943,7.1853,7.1853,7.1853,7.1853,7.1853,7.1758,7.1776,7.1792,7.1839,7.1874,7.1889,7.1929,7.1934,7.1939,7.1955,7.1972,7.1972,7.1974,7.1963,7.1963,7.1964,7.1964,7.1964,7.1964,7.1796,7.1814,7.1849,7.1884,7.1906,7.1936,7.1964,7.1985,7.2011,7.2011,7.2012,7.2008,7.193,7.1912,7.1967,7.1967,7.1966,7.1966,7.1966,7.187,7.1857,7.1909,7.1933,7.1978,7.2015,7.2023,7.2069,7.2087,7.2108,7.2103,7.2044,7.204,7.2034,7.2019,7.2099,7.2099,7.2099,7.2099,7.1907,7.1908,7.1967,7.2005,7.2042,7.2058,7.212,7.2144,7.2165,7.2178,7.2167,7.2148,7.2141,7.2141,7.2133,7.2119,7.2223,7.2223,7.2223,7.1955,7.1961,7.2012,7.2037,7.2074,7.2106,7.2166,7.221,7.2231,7.2228,7.2189,7.2184,7.2152,7.214,7.2135,7.2122,7.2096,0,0]}]]